Location: LDNL
(36.4545°S, 141.6685°E)
Time: 03:57:38
(UTC+11:00)

Vanguard 2 - Pass Details

Date: 19 August 2022
Orbit: 552 x 2934 km, 32.9° (Epoch: 06 October)

Event Time Altitude Azimuth Distance (km) Brightness Sun altitude
Rises 21:15:46 0° 258° (WSW) 6,363 13.1 -39.2°
Reaches altitude 10° 21:20:52 10° 264° (W) 5,038 12.3 -40.2°
Maximum altitude 21:32:35 36° 323° (NW) 2,538 10.1 -42.4°
Enters shadow 21:33:14 36° 330° (NNW) 2,495 10.0 -42.5°
Drops below altitude 10° 21:40:14 10° 26° (NNE) 3,261 - -43.9°
Sets 21:42:49 0° 35° (NE) 3,945 - -44.4°
